Location: Heyre
(44.1854°N, 6.4343°E)
Time: 23:10:21
(UTC+00:00)

Daily predictions for brighter satellites

Satellite Brightness Start Highest point End
(mag) Time Altitude Azimuth Time Altitude Azimuth Time Altitude Azimuth
CZ-4C R/B 3.9 17:31:44 10° N 17:35:58 69° WNW 17:39:58 10° SSW
USA 267 3.4 17:29:31 10° ESE 17:35:59 64° NNE 17:42:28 10° NW
SL-4 R/B 2.6 17:33:07 10° NW 17:37:25 51° NNE 17:41:57 10° E
Cosmos 1626 2.9 17:33:54 10° NNW 17:37:28 55° W 17:41:00 10° S
Cosmos 1805 3.2 17:36:42 10° S 17:40:31 66° E 17:44:24 10° NNE
Cosmos 1242 Rocket 2.6 17:38:15 10° SSW 17:41:48 83° W 17:45:21 10° N
Cosmos 1697 Rocket 4.1 17:41:36 10° SW 17:46:54 41° WNW 17:52:14 10° NNE
CZ-4 R/B 2.6 17:43:51 10° ESE 17:47:14 25° ENE 17:50:39 10° NNE
ISS -3.6 17:44:06 10° WNW 17:47:28 74° SW 17:50:50 10° SE
Cosmos 2082 4.1 17:42:14 10° NNW 17:47:57 72° WSW 17:53:39 10° SSE
BREEZE M DEB (TANK) 4.1 17:41:27 10° SSW 17:49:51 33° SSE 17:53:03 11° E
Okean 2 4.0 17:46:33 10° NNW 17:50:39 61° W 17:54:43 10° S
Cosmos 1908 Rocket 4.2 17:48:26 10° SSE 17:52:15 31° E 17:56:06 10° NNE
Meteor 2-21 4.5 17:46:51 10° S 17:52:43 56° E 17:58:36 10° NNE
MOS 1-B 4.4 17:47:30 10° SSE 17:53:11 60° ENE 17:58:54 10° N
Cosmos 1733 3.4 17:50:19 10° SSW 17:54:03 74° W 17:57:48 10° N
Cosmos 2360 Rocket 3.7 17:51:23 10° SE 17:54:19 15° E 17:57:16 10° ENE
SL-14 R/B 3.2 17:50:50 10° N 17:54:48 73° E 17:58:48 10° SSE
Cosmos 1809 Rocket 4.4 17:51:16 10° S 17:57:19 76° E 18:03:24 10° NNE
Cosmos 1766 3.3 17:56:35 10° S 18:00:24 53° E 18:04:15 10° NNE
Meteor 2-10 4.2 17:56:14 10° S 18:01:53 86° E 18:07:23 10° NNE
Cosmos 1674 Rocket 3.5 17:59:38 10° N 18:04:04 75° E 18:08:30 10° SSE
YAOGAN 1 2.7 18:01:10 10° SSE 18:05:22 54° ENE 18:09:36 10° N
Cosmos 1025 Rocket 4.5 18:03:31 10° NNE 18:06:33 18° ENE 18:07:57 16° E
Cosmos 968 Rocket 3.8 18:02:00 10° S 18:06:58 45° ESE 18:11:57 10° NNE
Okean O Rocket 1.8 18:05:03 10° SE 18:09:14 48° ENE 18:13:28 10° N
IRIDIUM 106 4.3 18:05:47 10° S 18:10:55 64° E 18:16:05 10° N
Lacrosse 4 Rocket 2.5 18:08:36 10° SSE 18:11:49 23° ESE 18:13:56 16° ENE
Nadezhda 4 Rocket 4.0 18:07:57 10° S 18:14:13 69° E 18:20:29 10° NNE
Meteor 1-15 Rocket 4.3 18:10:35 10° S 18:15:59 55° E 18:21:25 10° NNE
Meteor 2-5 Rocket 4.0 18:11:09 10° N 18:16:24 42° ENE 18:21:37 10° SE
USA 186 3.3 18:22:41 21° ENE 18:22:41 21° ENE 18:25:00 10° NNE
Cosmos 1726 2.7 18:18:59 10° SSW 18:22:34 58° W 18:26:12 10° N
Cosmos 2322 Rocket 2.6 18:17:34 10° S 18:22:48 39° ESE 18:28:04 10° NE
Cosmos 2285 Rocket 4.0 18:16:32 10° NNW 18:22:54 74° ENE 18:29:18 10° SSE
Cosmos 1470 3.0 18:23:35 10° SSE 18:27:13 42° E 18:30:52 10° NNE
CZ-4B R/B 3.3 18:22:18 10° SSE 18:27:41 82° WSW 18:33:13 10° NNW
Cosmos 1980 Rocket 3.7 18:23:47 10° SW 18:29:00 38° WNW 18:34:15 10° NNE
Cosmos 1378 Rocket 4.2 18:26:17 10° NNW 18:30:35 56° W 18:34:49 10° S
Cosmos 1975 Rocket 3.7 18:27:45 10° N 18:31:47 34° ENE 18:33:09 28° ESE
ARGOS Delta rocket 4.3 18:27:02 10° N 18:32:15 70° WNW 18:37:10 10° SSW
Cosmos 2292 Rocket 3.6 18:32:05 10° S 18:37:24 75° E 18:41:25 10° NNE
USA 215 4.1 18:38:05 10° NE 18:44:15 45° NNW 18:50:23 10° W
Cosmos 1844 Rocket 3.0 18:45:36 10° NNW 18:51:06 48° ENE 18:52:59 35° ESE
SL-16 R/B 2.2 18:47:19 10° SSW 18:52:59 87° WNW 18:58:42 10° NNE
Cosmos 1092 Rocket 3.9 18:49:24 10° S 18:55:42 81° E 19:01:59 10° N
Cosmos 1570 Rocket 4.2 18:51:08 10° NNW 18:56:23 73° WSW 19:00:57 14° S
Landsat 5 3.6 18:52:20 10° NNE 18:56:48 60° ESE 19:01:08 10° S
Resurs 01 Rocket 3.5 19:01:19 17° NE 19:01:19 17° NE 19:02:57 10° NNE
SJ-6B 2.7 19:02:07 59° NE 19:02:07 59° NE 19:05:33 10° N
Cosmos 1437 Rocket 3.9 19:01:26 10° SSW 19:04:59 42° WNW 19:08:34 10° N
H-2A R/B 4.4 19:07:12 16° NNE 19:07:12 16° NNE 19:08:14 10° NNE
Cosmos 2278 Rocket 4.3 19:03:34 10° NNE 19:05:38 12° NE 19:05:41 12° NE
Cosmos 2263 Rocket 4.2 19:05:12 10° NW 19:09:55 28° WSW 19:14:39 10° SSW
Resurs 1-3 3.9 19:11:26 50° NE 19:11:26 50° NE 19:15:12 10° N
Meteor 1-24 Rocket 3.7 19:06:26 10° NNW 19:11:45 76° W 19:16:12 15° S
SL-4 R/B 3.1 19:12:37 10° WNW 19:16:56 44° SW 19:17:52 39° S
USA 267 4.1 19:14:27 17° SSE 19:19:09 43° SW 19:25:21 10° WNW
Cosmos 2084 Rocket 3.4 19:16:21 10° NW 19:19:51 70° WNW 19:19:51 70° WNW
Okean-O 2.4 19:20:29 84° ESE 19:20:35 86° ENE 19:25:01 10° NNW
CZ-4 R/B 3.3 19:18:20 10° SSW 19:22:02 31° W 19:25:46 10° NNW
Cosmos 1486 Rocket 3.9 19:17:03 10° SSW 19:22:21 81° ESE 19:27:43 10° NNE
OBJECT-B 3.6 19:24:56 11° NNW 19:24:56 11° NNW 19:25:03 10° NNW
ISS -0.7 19:23:09 10° WSW 19:23:41 10° SW 19:24:14 10° SW
IGS 5A 3.5 19:24:37 76° W 19:24:37 76° W 19:28:39 10° NNW
Cosmos 1844 3.5 19:20:05 10° NNW 19:25:40 74° ENE 19:26:13 68° ESE
DNEPR-1 R/B 4.0 19:22:08 10° SW 19:26:45 75° NW 19:30:36 20° NNE
Cosmos 2333 Rocket 4.3 19:23:41 10° S 19:36:34 - NNE 19:24:21 13° S
Cosmos 1300 Rocket 3.8 19:30:15 64° NNW 19:30:15 64° NNW 19:34:03 10° N
CSL-04 Debris 4.4 19:28:02 30° S 19:30:42 67° WSW 19:36:06 10° NNW
S3M 4.4 19:24:59 10° N 19:30:09 44° NE 19:30:09 44° NE
Cosmos 2360 Rocket 2.1 19:31:52 10° SSW 19:37:32 83° WNW 19:43:12 10° NNE
Cosmos 1025 Rocket 4.1 19:40:16 10° NNW 19:44:20 41° W 19:44:51 39° WSW
Okean O Rocket 4.3 19:43:02 10° SW 19:45:51 17° W 19:48:41 10° NW
Lacrosse 4 Rocket 2.8 19:46:27 10° WSW 19:50:13 35° NW 19:50:17 35° NW
Cosmos 1417 Rocket 4.3 19:45:18 10° N 19:51:04 76° NE 19:51:04 76° NE
ATLAS 2AS CENTAUR R/B 4.3 19:55:15 10° NNW 20:00:31 21° NNE 20:01:35 20° NNE
Cosmos 1553 Rocket 4.4 19:58:56 10° NNW 20:05:12 61° W 20:06:33 50° SW
Cosmos 2322 Rocket 3.7 20:01:41 10° WSW 20:06:52 35° NW 20:12:06 10° N
NOSS 3-4 (A) 4.2 20:05:59 10° NNW 20:12:04 53° NNE 20:12:04 53° NNE
NOSS 3-4 (C) 4.2 20:06:05 10° NNW 20:12:10 53° NNE 20:12:10 53° NNE
NOSS 3-3 (A) 4.4 20:15:16 10° SW 20:20:03 52° WNW 20:20:03 52° WNW
NOSS 3-3 (C) 4.5 20:15:22 10° SW 20:19:58 51° W 20:19:58 51° W
USA 281 4.4 20:27:40 31° NNE 20:27:40 31° NNE 20:31:35 10° N
Cosmos 1844 Rocket 4.4 20:30:01 10° NW 20:34:40 27° WSW 20:34:40 27° WSW
Resurs 01 Rocket 4.3 20:38:53 17° NW 20:38:53 17° NW 20:40:01 10° NNW
Cosmos 2278 Rocket 4.1 20:45:27 10° NNW 20:47:32 23° N 20:47:32 23° N
